Regional Weather Roundup
Issued by NWS

Home | Current Version | Previous Version | Graphics & Text | Print | Product List | Glossary On
Versions: 1 2 3 4 5 6 7 8 9 10 11 12 13 14 15 16 17 18 19 20 21 22 23 24 25 26 27 28 29 30 31 32 33 34 35 36 37 38 39 40 41 42 43 44 45 46 47 48 49 50
000
ASUS43 KIND 230059
RWRIN

WEATHER ROUNDUP FOR INDIANA
NATIONAL WEATHER SERVICE INDIANAPOLIS IN
900 PM EDT SUN APR 22 2018

NOTE: "FAIR" INDICATES FEW OR NO CLOUDS BELOW 12,000 FEET WITH NO
SIGNIFICANT WEATHER AND/OR OBSTRUCTIONS TO VISIBILITY.

* - STATION DOES NOT REPORT WEATHER SUCH AS PRECIPITATION OR FOG.

+ - STATION NOT QUALITY CONTROLLED BY THE NATIONAL WEATHER SERVICE.
    USE DATA WITH CAUTION...ESPECIALLY DEWPOINT AND RELATIVE
    HUMIDITY OBSERVATIONS.

INZ001>003-010>013-019-020-230200-
NORTHWEST INDIANA

CITY           SKY/WX    TMP DP  RH WIND       PRES   REMARKS
GARY /AIRPORT/ MOCLDY    45  32  61 NE12      30.26R
KNOX *+        FAIR      55  27  33 E9        30.23S
MONTICELLO +   FAIR      58  28  31 E10       30.20S

$$

LMZ046-743>745-230200-
SOUTHERN LAKE MICHIGAN

STATION/POSITION TIME  TEMP    WIND        PRES    WAVE
                       AIR SEA DIR/SP/G            HT
                 (UTC) (F)     (DEG/KT/KT) (MB)    (FT)
MICHIGAN CITY    0030   42      30/ 14/ 15   N/A

$$

INZ004-005-014>016-021>024-230200-
NORTH CENTRAL INDIANA

CITY           SKY/WX    TMP DP  RH WIND       PRES   REMARKS
GOSHEN         FAIR      52  24  33 E12       30.27R
ROCHESTER +    FAIR      57  25  28 NE8       30.24S
SOUTH BEND     FAIR      55  20  25 E10       30.28R
WARSAW +       FAIR      50  27  40 E9        30.26R

$$

INZ006>009-017-018-025>027-230200-
NORTHEAST INDIANA

CITY           SKY/WX    TMP DP  RH WIND       PRES   REMARKS
FORT WAYNE     MOCLDY    53  26  35 NE15      30.26S

$$

INZ028-029-035-036-043>045-051>053-230200-
WEST CENTRAL INDIANA

CITY           SKY/WX    TMP DP  RH WIND       PRES   REMARKS
LAFAYETTE      FAIR      58  32  37 NE10      30.18S
TERRE HAUTE    FAIR      58  34  40 E8        30.13S

$$

INZ030>032-037>040-046>048-054>057-064-065-230200-
CENTRAL INDIANA

CITY           SKY/WX    TMP DP  RH WIND       PRES   REMARKS
COLUMBUS       CLEAR     57 N/A N/A NE6       30.15F
GREENWOOD *+   FAIR      59  31  34 E6        30.17R
INDIANAPOLIS   CLOUDY    61  31  32 NE12      30.16R
-EAGLE CREEK   FAIR      61  31  32 NE8       30.16R
KOKOMO +       FAIR      54  32  43 NE12      30.22R
MT COMFORT *+  FAIR      55  39  54 NE9       30.18S
SHELBYVILLE    FAIR      60  31  33 NE9       30.15S
ZIONSVILLE +   FAIR      56  31  39 NE9       30.18S

$$

INZ033-034-041-042-049-050-058-059-230200-
EAST CENTRAL INDIANA

CITY           SKY/WX    TMP DP  RH WIND       PRES   REMARKS
MUNCIE         FAIR      57  32  38 NE8       30.21R
RICHMOND +     FAIR      54  32  43 E10       30.19F

$$

INZ060-061-067>069-081>083-085>088-230200-
SOUTHWEST INDIANA

CITY           SKY/WX    TMP DP  RH WIND       PRES   REMARKS
EVANSVILLE     CLOUDY    58  55  90 NE8       30.05S
HUNTINGBURG +  FAIR      63  45  51 NE14      30.06F

$$

INZ062-063-066-070>080-084-089>092-230200-
SOUTH CENTRAL AND SOUTHEAST INDIANA

CITY           SKY/WX    TMP DP  RH WIND       PRES   REMARKS
BLOOMINGTON    FAIR      62  29  28 E10       30.13R
SEYMOUR +      CLOUDY    63  34  34 NE12      30.12F

$$





USA.gov is the U.S. government's official web portal to all federal, state and local government web resources and services.